TimeAKDT,TemperatureF,Dew PointF,Humidity,Sea Level PressureIn,VisibilityMPH,Wind Direction,Wind SpeedMPH,Gust SpeedMPH,PrecipitationIn,Events,Conditions,WindDirDegrees,DateUTC
12:16 AM,-14.8,-23.8,64,29.85,3.0,Calm,Calm,-,N/A,,Mostly Cloudy,0,2013-03-26 08:16:00
12:36 AM,-14.8,-23.8,64,29.85,6.0,Calm,Calm,-,N/A,,Mostly Cloudy,0,2013-03-26 08:36:00
12:56 AM,-14.8,-23.8,64,29.85,10.0,Calm,Calm,-,N/A,,Overcast,0,2013-03-26 08:56:00
1:16 AM,-14.8,-23.8,64,29.85,10.0,Calm,Calm,-,N/A,,Mostly Cloudy,0,2013-03-26 09:16:00
1:36 AM,-14.8,-23.8,64,29.86,10.0,Calm,Calm,-,N/A,,Partly Cloudy,0,2013-03-26 09:36:00
1:56 AM,-16.6,-25.6,64,29.87,10.0,Calm,Calm,-,N/A,,Clear,0,2013-03-26 09:56:00
2:16 AM,-16.6,-25.6,64,29.87,10.0,Calm,Calm,-,N/A,,Clear,0,2013-03-26 10:16:00
2:36 AM,-18.4,-27.4,63,29.88,10.0,Calm,Calm,-,N/A,,Clear,0,2013-03-26 10:36:00
2:56 AM,-18.4,-27.4,63,29.88,10.0,Calm,Calm,-,N/A,,Clear,0,2013-03-26 10:56:00
3:16 AM,-18.4,-27.4,63,29.89,10.0,Calm,Calm,-,N/A,,Clear,0,2013-03-26 11:16:00
3:36 AM,-18.4,-27.4,63,29.90,10.0,Calm,Calm,-,N/A,,Clear,0,2013-03-26 11:36:00
3:56 AM,-20.2,-27.4,69,29.90,10.0,Calm,Calm,-,N/A,,Clear,0,2013-03-26 11:56:00
4:16 AM,-18.4,-29.2,58,29.91,10.0,Calm,Calm,-,N/A,,Clear,0,2013-03-26 12:16:00
4:36 AM,-18.4,-27.4,63,29.91,9.0,Calm,Calm,-,N/A,,Clear,0,2013-03-26 12:36:00
4:56 AM,-18.4,-27.4,63,29.92,7.0,Calm,Calm,-,N/A,,Clear,0,2013-03-26 12:56:00
5:16 AM,-18.4,-27.4,63,29.92,5.0,Calm,Calm,-,N/A,,Clear,0,2013-03-26 13:16:00
5:36 AM,-18.4,-27.4,63,29.93,8.0,Calm,Calm,-,N/A,,Clear,0,2013-03-26 13:36:00
5:56 AM,-18.4,-27.4,63,29.92,10.0,Calm,Calm,-,N/A,,Clear,0,2013-03-26 13:56:00
6:16 AM,-18.4,-27.4,63,29.93,10.0,Calm,Calm,-,N/A,,Clear,0,2013-03-26 14:16:00
6:36 AM,-18.4,-27.4,63,29.93,10.0,Calm,Calm,-,N/A,,Clear,0,2013-03-26 14:36:00
6:56 AM,-20.2,-29.2,63,29.94,10.0,Calm,Calm,-,N/A,,Clear,0,2013-03-26 14:56:00
7:16 AM,-20.2,-29.2,63,29.94,10.0,Calm,Calm,-,N/A,,Clear,0,2013-03-26 15:16:00
7:36 AM,-18.4,-25.6,70,29.95,10.0,Calm,Calm,-,N/A,,Clear,0,2013-03-26 15:36:00
7:56 AM,-18.4,-29.2,58,29.95,10.0,Calm,Calm,-,N/A,,Clear,0,2013-03-26 15:56:00
8:16 AM,-20.2,-29.2,63,29.95,10.0,Calm,Calm,-,N/A,,Clear,0,2013-03-26 16:16:00
8:36 AM,-20.2,-29.2,63,29.96,10.0,Calm,Calm,-,N/A,,Clear,0,2013-03-26 16:36:00
8:56 AM,-20.2,-29.2,63,29.96,10.0,Calm,Calm,-,N/A,,Clear,0,2013-03-26 16:56:00
9:16 AM,-18.4,-27.4,63,29.97,10.0,Calm,Calm,-,N/A,,Clear,0,2013-03-26 17:16:00
9:36 AM,-18.4,-27.4,63,29.98,10.0,Calm,Calm,-,N/A,,Clear,0,2013-03-26 17:36:00
9:56 AM,-18.4,-27.4,63,29.99,10.0,Calm,Calm,-,N/A,,Clear,0,2013-03-26 17:56:00
10:16 AM,-18.4,-27.4,63,29.99,10.0,Calm,Calm,-,N/A,,Clear,0,2013-03-26 18:16:00
10:36 AM,-16.6,-25.6,64,30.00,10.0,SE,3.5,-,N/A,,Mostly Cloudy,130,2013-03-26 18:36:00
10:56 AM,-16.6,-22.0,76,30.00,10.0,Calm,Calm,-,N/A,,Mostly Cloudy,0,2013-03-26 18:56:00
11:16 AM,-16.6,-23.8,70,30.00,10.0,Calm,Calm,-,N/A,,Mostly Cloudy,0,2013-03-26 19:16:00
11:36 AM,-14.8,-23.8,64,30.00,10.0,Calm,Calm,-,N/A,,Scattered Clouds,0,2013-03-26 19:36:00
11:56 AM,-13.0,-20.2,70,30.00,10.0,Calm,Calm,-,N/A,,Mostly Cloudy,0,2013-03-26 19:56:00
12:16 PM,-13.0,-20.2,70,30.02,10.0,SE,3.5,-,N/A,,Overcast,130,2013-03-26 20:16:00
12:36 PM,-13.0,-22.0,64,30.02,10.0,Calm,Calm,-,N/A,,Overcast,0,2013-03-26 20:36:00
12:56 PM,-11.2,-18.4,70,30.02,10.0,Calm,Calm,-,N/A,,Overcast,0,2013-03-26 20:56:00
1:16 PM,-11.2,-20.2,64,30.03,10.0,SSE,3.5,-,N/A,,Overcast,150,2013-03-26 21:16:00
1:36 PM,-11.2,-20.2,64,30.03,8.0,East,3.5,-,N/A,,Overcast,100,2013-03-26 21:36:00
1:56 PM,-11.2,-20.2,64,30.04,7.0,Calm,Calm,-,N/A,,Overcast,0,2013-03-26 21:56:00
2:16 PM,-9.4,-20.2,59,30.05,4.0,ESE,3.5,-,N/A,,Overcast,120,2013-03-26 22:16:00
2:36 PM,-9.4,-18.4,65,30.06,3.0,Calm,Calm,-,N/A,,Overcast,0,2013-03-26 22:36:00
2:56 PM,-7.6,-18.4,59,30.06,4.0,ESE,3.5,-,N/A,,Mostly Cloudy,110,2013-03-26 22:56:00
3:16 PM,-7.6,-16.6,65,30.07,3.0,SE,3.5,-,N/A,,Overcast,140,2013-03-26 23:16:00
3:36 PM,-7.6,-18.4,59,30.07,5.0,South,5.8,-,N/A,,Overcast,170,2013-03-26 23:36:00
3:56 PM,-7.6,-16.6,65,30.08,6.0,SSE,3.5,-,N/A,,Overcast,160,2013-03-26 23:56:00
4:16 PM,-5.8,-18.4,55,30.09,4.0,SSE,3.5,-,N/A,,Overcast,150,2013-03-27 00:16:00
4:36 PM,-5.8,-18.4,55,30.09,3.0,SE,4.6,-,N/A,,Overcast,130,2013-03-27 00:36:00
4:56 PM,-7.6,-16.6,65,30.09,4.0,Calm,Calm,-,N/A,,Overcast,0,2013-03-27 00:56:00
5:16 PM,-5.8,-18.4,55,30.10,2.5,Calm,Calm,-,N/A,,Overcast,0,2013-03-27 01:16:00
5:36 PM,-5.8,-14.8,65,30.10,3.0,Calm,Calm,-,N/A,,Overcast,0,2013-03-27 01:36:00
5:56 PM,-5.8,-14.8,65,30.11,7.0,SSE,4.6,-,N/A,,Overcast,160,2013-03-27 01:56:00
6:16 PM,-5.8,-14.8,65,30.11,9.0,South,4.6,-,N/A,,Overcast,180,2013-03-27 02:16:00
6:36 PM,-5.8,-14.8,65,30.12,5.0,South,5.8,-,N/A,,Overcast,190,2013-03-27 02:36:00
6:56 PM,-5.8,-14.8,65,30.12,3.0,South,4.6,-,N/A,,Overcast,190,2013-03-27 02:56:00
7:16 PM,-5.8,-14.8,65,30.12,3.0,SSW,5.8,-,N/A,,Overcast,210,2013-03-27 03:16:00
7:36 PM,-5.8,-16.6,60,30.13,3.0,SSW,5.8,-,N/A,,Overcast,200,2013-03-27 03:36:00
7:56 PM,-5.8,-16.6,60,30.13,4.0,SW,5.8,-,N/A,,Overcast,220,2013-03-27 03:56:00
8:16 PM,-7.6,-16.6,65,30.13,5.0,SSW,4.6,-,N/A,,Overcast,200,2013-03-27 04:16:00
8:36 PM,-7.6,-16.6,65,30.14,7.0,South,4.6,-,N/A,,Overcast,190,2013-03-27 04:36:00
8:56 PM,-7.6,-16.6,65,30.14,9.0,South,3.5,-,N/A,,Overcast,180,2013-03-27 04:56:00
9:16 PM,-7.6,-16.6,65,30.14,10.0,South,3.5,-,N/A,,Overcast,180,2013-03-27 05:16:00
9:36 PM,-7.6,-16.6,65,30.15,9.0,Calm,Calm,-,N/A,,Overcast,0,2013-03-27 05:36:00
9:56 PM,-7.6,-16.6,65,30.15,8.0,Calm,Calm,-,N/A,,Overcast,0,2013-03-27 05:56:00
10:16 PM,-7.6,-16.6,65,30.16,4.0,Calm,Calm,-,N/A,,Overcast,0,2013-03-27 06:16:00
10:36 PM,-7.6,-16.6,65,30.16,5.0,Calm,Calm,-,N/A,,Overcast,0,2013-03-27 06:36:00
10:56 PM,-7.6,-16.6,65,30.16,10.0,Calm,Calm,-,N/A,,Overcast,0,2013-03-27 06:56:00
11:16 PM,-9.4,-16.6,71,30.16,9.0,Calm,Calm,-,N/A,,Overcast,0,2013-03-27 07:16:00
11:36 PM,-9.4,-16.6,71,30.16,10.0,Calm,Calm,-,N/A,,Overcast,0,2013-03-27 07:36:00
11:56 PM,-9.4,-16.6,71,30.16,10.0,Calm,Calm,-,N/A,,Overcast,0,2013-03-27 07:56:00